CAPE
1740 1358 744 765 556 110 8 0 18 230 799 988 745 515 371 303 151 98 41 0 0 1 0 0 0 0 0 0 0 0 0 0
1591 1449 1095 329 118 0 0 0 3 42 556 699 535 427 334 258 106 44 3 0 2 0 0 0 0 0 0 0 0 0 0 0
1316 1199 1092 650 125 0 0 0 0 6 630 511 388 397 396 161 59 3 0 0 0 0 0 0 0 0 0 0 0 1 0 0
989 899 799 629 384 41 8 1 0 28 459 370 392 375 430 208 55 11 0 0 0 0 0 0 0 0 0 0 0 2 0 0
275 550 551 564 354 210 178 19 0 5 217 178 286 406 204 103 5 0 0 0 0 0 0 0 0 0 0 0 6 1 0 0
364 365 496 480 384 213 304 176 120 165 103 194 170 77 113 65 0 0 0 0 0 0 0 0 0 0 0 0 15 0 0 0
137 53 256 298 305 211 224 167 121 77 38 30 34 32 42 41 0 0 0 0 0 0 0 0 0 0 0 0 20 6 0 0
0 1 0 37 75 130 95 44 11 5 0 4 5 31 0 7 12 0 4 0 1 0 0 0 0 0 0 0 15 6 0 0
0 0 3 3 23 21 57 7 2 2 0 0 0 0 0 6 76 17 46 12 8 0 0 0 0 0 0 0 1 15 4 0
0 1 4 0 18 9 2 2 2 2 0 0 0 0 0 6 76 100 91 60 92 27 0 0 0 0 0 0 0 0 7 0
0 0 2 2 3 1 5 2 2 2 3 0 0 0 4 45 105 143 172 101 145 7 0 0 0 0 0 0 0 0 0 0
0 0 3 3 7 1 2 2 2 1 3 0 0 0 13 42 62 66 21 17 104 53 18 6 0 0 0 0 0 0 0 0
2 0 0 2 2 2 2 3 2 1 1 1 0 2 47 110 99 139 118 105 85 79 74 61 63 38 1 0 0 0 0 0
1 1 1 0 3 1 1 3 3 1 0 0 4 28 67 64 71 112 108 88 55 81 81 77 67 48 10 2 0 0 0 0
0 1 2 1 3 2 2 1 1 2 0 2 8 25 31 49 55 77 91 89 70 74 71 88 84 84 53 16 34 17 12 0
3 1 1 0 9 1 0 1 1 0 0 0 0 14 46 64 60 70 33 83 153 140 130 121 120 47 76 82 110 137 40 15
2 0 1 0 3 1 0 2 0 0 0 0 1 12 18 39 54 104 85 94 138 143 122 114 78 46 37 22 33 24 39 15
2 5 3 0 2 4 1 0 1 1 0 0 0 0 35 20 32 88 81 81 110 86 76 49 50 27 15 51 20 10 28 25
5 2 3 7 1 2 2 1 0 0 0 0 0 0 1 26 16 50 30 57 120 113 70 51 27 10 0 9 28 41 46 26
0 2 4 6 7 3 1 1 0 2 0 0 0 0 0 1 10 7 16 11 1 4 20 14 18 10 0 6 7 20 25 18
CIN
-2 -25 -104 -58 -81 -158 -202 -3 -69 -1 -1 -1 -3 -31 -42 -25 -28 -39 -22 -0 -0 -0 -0 -0 -0 -0 -0 -0 -0 -7 -0 -0
-2 -1 -14 -112 -195 -0 -0 -0 -9 -57 -1 -11 -12 -35 -34 -33 -73 -59 -8 -0 -0 -0 -0 -0 -0 -0 -0 -0 -0 -0 -0 -0
-1 -2 -2 -2 -134 -0 -0 -0 -0 -0 -2 -24 -17 -26 -13 -27 -39 -38 -16 -0 -0 -0 -0 -0 -0 -0 -0 -0 -0 -3 -0 -0
-3 -8 -4 -2 -12 -121 -186 -24 -0 -17 -5 -15 -1 -3 -2 -3 -38 -101 -0 -0 -0 -0 -0 -0 -0 -0 -0 -0 -0 -22 -0 -0
-20 -10 -17 -10 -10 -10 -6 -121 -0 -72 -5 -8 -7 -1 -6 -10 -43 -9 -0 -0 -0 -0 -0 -0 -0 -0 -0 -0 -15 -7 -0 -0
-4 -4 -11 -5 -6 -22 -1 -4 -13 -0 -2 -10 -21 -31 -29 -31 -0 -0 -0 -0 -0 -0 -0 -0 -0 -0 -0 -0 -7 -10 -0 -0
-17 -51 -10 -6 -8 -20 -6 -1 -8 -12 -10 -39 -36 -32 -22 -6 -0 -0 -0 -0 -0 -0 -0 -0 -0 -0 -0 -0 -6 -39 -0 -0
-0 -0 -0 -57 -38 -19 -26 -19 -92 -69 -1 -16 -39 -37 -0 -19 -35 -0 -47 -0 -67 -0 -0 -0 -0 -0 -0 -0 -5 -24 -0 -0
-0 -0 -1 -3 -18 -34 -15 -3 -0 -0 -0 -0 -0 -0 -0 -33 -18 -71 -27 -93 -26 -0 -1 -0 -0 -0 -0 -0 -1 -4 -25 -0
-0 -0 -0 -0 -11 -7 -11 -0 -0 -0 -0 -0 -0 -0 -0 -22 -9 -20 -13 -21 -14 -12 -0 -0 -0 -0 -0 -0 -0 -0 -4 -0
-0 -0 -0 -0 -0 -0 -11 -0 -0 -0 -0 -0 -0 -0 -20 -8 -27 -13 -8 -14 -7 -24 -0 -0 -0 -0 -0 -0 -0 -0 -0 -0
-0 -0 -0 -0 -0 -0 -0 -0 -0 -0 -0 -0 -0 -0 -14 -7 -17 -16 -8 -10 -7 -14 -21 -47 -0 -0 -0 -0 -0 -0 -0 -0
-0 -0 -0 -0 -0 -6 -0 -0 -0 -0 -0 -0 -0 -8 -1 -7 -14 -22 -26 -24 -12 -8 -21 -9 -7 -5 -10 -0 -0 -0 -0 -0
-1 -0 -0 -0 -1 -0 -0 -0 -0 -0 -0 -0 -7 -6 -6 -15 -23 -28 -26 -41 -36 -25 -23 -11 -20 -18 -39 -76 -12 -7 -0 -0
-0 -0 -0 -0 -0 -1 -0 -0 -0 -0 -0 -4 -9 -11 -10 -21 -32 -34 -35 -38 -43 -43 -27 -36 -32 -39 -26 -28 -19 -51 -23 -0
-1 -0 -0 -0 -0 -4 -0 -0 -0 -0 -0 -0 -2 -15 -20 -24 -20 -36 -56 -41 -20 -25 -51 -41 -28 -19 -24 -27 -23 -33 -10 -21
-4 -1 -0 -0 -1 -1 -0 -0 -0 -0 -0 -0 -10 -32 -15 -6 -5 -21 -54 -54 -32 -36 -46 -29 -19 -19 -51 -39 -23 -29 -22 -8
-1 -0 -2 -0 -1 -1 -7 -8 -0 -0 -0 -0 -0 -0 -20 -18 -27 -17 -61 -48 -40 -41 -42 -10 -23 -23 -47 -33 -31 -25 -15 -19
-0 -3 -2 -0 -6 -4 -3 -1 -0 -0 -0 -0 -0 -0 -6 -16 -36 -38 -65 -46 -44 -30 -39 -18 -48 -55 -3 -52 -29 -26 -19 -17
-1 -0 -0 -0 -0 -2 -3 -1 -0 -3 -0 -0 -0 -0 -0 -38 -49 -64 -77 -77 -7 -47 -52 -51 -66 -51 -11 -45 -28 -17 -28 -29
Wind_Speed
7 5 9 8 11 13 17 23 36 39 16 13 11 9 8 6 6 6 6 6 5 6 9 8 8 5 3 4 7 10 13 14
10 8 8 7 7 14 16 10 12 23 18 14 13 14 9 7 8 7 7 6 6 6 9 8 7 5 4 6 6 13 13 13
11 9 7 5 6 10 9 12 10 32 20 16 15 10 8 9 7 8 9 7 7 6 7 7 7 5 3 4 6 11 12 12
13 8 8 7 9 9 9 16 19 31 19 18 13 11 9 6 6 9 9 8 7 7 7 8 6 3 2 5 8 10 12 12
14 8 1 3 14 12 7 15 18 40 23 19 14 11 9 7 7 8 9 9 7 6 7 4 6 4 3 6 5 10 10 11
13 8 4 4 12 13 11 10 14 14 20 15 13 10 9 8 8 9 9 10 8 7 6 3 4 2 6 4 5 9 9 9
15 14 10 6 8 13 14 10 9 16 16 13 11 10 8 9 8 9 9 10 11 8 9 4 3 1 3 3 7 9 9 10
15 14 12 10 13 16 14 16 10 13 16 14 11 12 7 7 9 10 9 12 13 12 10 4 3 2 2 2 6 9 9 10
15 15 12 8 8 10 18 16 14 15 17 13 11 9 7 11 11 13 10 15 13 15 7 6 4 1 0 3 4 5 8 8
13 14 12 11 6 7 9 15 16 15 15 14 12 10 8 13 16 12 13 14 13 11 8 6 4 2 1 1 3 3 5 5
12 10 11 13 12 4 8 11 14 14 15 12 13 10 12 15 13 12 10 14 12 10 10 8 5 3 2 1 2 2 2 3
9 7 8 11 16 12 2 4 14 14 14 12 13 12 12 13 13 12 10 11 9 11 11 9 7 6 4 3 4 2 1 1
11 10 9 8 11 13 9 6 8 10 11 12 13 15 15 11 12 11 11 10 8 9 11 8 7 8 7 3 5 6 3 2
14 13 9 10 9 9 9 11 9 12 13 12 14 14 12 11 11 11 10 10 10 10 10 10 10 7 5 3 8 9 8 4
15 14 9 12 13 11 8 9 7 10 14 12 12 13 13 12 12 13 12 10 11 12 9 10 8 5 5 9 8 7 4 3
16 15 12 13 11 6 9 6 7 11 21 20 12 10 15 13 12 13 17 14 13 11 10 9 8 7 7 8 26 17 9 16
15 15 16 16 13 10 9 9 10 11 16 15 10 9 15 15 14 14 16 15 12 11 11 12 12 9 12 13 32 34 34 21
13 14 15 15 16 14 13 12 15 14 15 16 13 12 12 15 14 15 14 16 13 13 14 14 13 11 14 19 27 30 31 19
13 13 14 14 17 17 16 15 17 16 18 19 15 14 14 13 15 15 16 15 15 15 15 17 15 18 19 29 39 30 26 25
15 14 15 16 16 16 19 19 22 19 16 18 17 16 16 20 18 17 19 18 18 18 19 18 22 26 22 23 38 23 24 22
Wind_Direction
339 317 303 291 265 259 275 273 229 225 185 167 165 166 145 169 149 171 167 144 144 125 106 110 102 96 49 355 344 54 61 63
327 320 307 293 268 274 274 267 252 226 208 166 167 137 149 151 138 182 188 165 147 129 111 113 110 95 57 28 16 63 62 63
324 311 299 284 258 261 262 286 304 222 180 180 158 156 153 144 151 154 191 166 147 139 121 122 110 97 59 352 353 61 60 58
324 297 291 274 278 265 259 270 254 225 191 171 176 170 161 175 161 163 149 160 155 145 130 122 112 107 29 335 307 59 60 62
339 335 229 279 275 272 248 252 248 221 201 168 167 173 168 181 186 164 182 175 176 160 141 141 121 99 34 318 340 57 55 69
7 10 26 120 279 266 259 245 242 203 190 185 172 187 166 154 181 168 173 202 188 174 187 168 146 78 325 37 5 60 60 71
2 348 345 338 284 265 252 239 225 171 183 181 193 199 201 182 184 170 175 188 207 199 225 178 172 327 38 62 349 70 73 83
2 356 335 322 285 265 248 230 198 185 184 204 188 218 169 189 199 181 200 203 212 227 235 207 210 278 65 16 24 78 82 94
358 360 11 21 308 268 241 225 200 198 211 205 210 209 202 203 187 161 197 211 213 234 215 228 235 227 163 352 31 34 95 97
13 3 21 8 7 268 227 210 203 194 203 204 208 223 195 205 170 173 174 210 219 232 221 225 226 206 247 26 37 33 47 98
21 19 28 43 40 299 231 197 207 207 209 204 219 205 190 174 181 189 188 206 216 219 231 231 222 243 261 288 331 332 352 333
53 56 38 53 69 75 51 172 208 219 212 220 185 189 189 170 191 217 176 169 208 224 228 237 243 263 277 297 303 311 290 293
95 102 73 49 74 90 96 125 201 181 194 181 177 217 176 204 216 217 227 216 217 216 236 241 255 268 287 309 305 305 294 241
109 119 91 85 80 92 86 107 134 158 167 197 210 180 193 194 196 198 209 216 216 223 228 250 269 266 274 301 306 305 293 270
115 128 114 112 109 97 102 108 104 146 162 203 205 181 192 200 199 186 191 198 205 224 229 244 241 254 255 299 308 310 342 181
117 121 123 129 123 105 121 132 156 154 155 156 170 195 176 184 196 213 180 180 182 194 233 218 204 211 255 273 258 289 331 321
125 123 127 134 133 121 131 141 152 158 161 167 208 213 173 174 184 190 191 188 203 211 214 215 199 251 275 275 253 239 248 290
123 127 134 135 144 142 143 148 158 163 170 177 193 201 203 184 180 188 202 198 224 230 245 209 256 266 273 274 271 270 275 295
126 134 140 135 150 153 152 148 154 169 174 181 190 198 206 210 211 227 216 222 233 235 237 260 262 268 268 269 258 274 283 289
136 137 140 148 148 152 159 159 165 161 173 185 191 199 200 187 195 213 233 235 235 241 253 262 267 269 268 272 265 280 284 287